Regional Weather Roundup
Issued by NWS

Home | Current Version | Previous Version | Graphics & Text | Print | Product List | Glossary Off
Versions: 1 2 3 4 5 6 7 8 9 10 11 12 13 14 15 16 17 18 19 20 21 22 23 24 25 26 27 28 29 30 31 32 33 34 35 36 37 38 39 40 41 42 43 44 45 46 47 48 49 50

002
ASUS43 KDTX 171910
RWRMI
MICHIGAN HOURLY REGIONAL WEATHER ROUNDUP
NATIONAL WEATHER SERVICE DETROIT/PONTIAC MI
200 PM EST TUE JAN 17 2017

NOTE: "FAIR" INDICATES FEW OR NO CLOUDS BELOW 12,000 FEET WITH NO
SIGNIFICANT WEATHER AND/OR OBSTRUCTION TO VISIBILITY.

MIZ047>049-052>055-059>063-066>070-074>076-081>083-172000-
SOUTHEAST LOWER MICHIGAN

CITY           SKY/WX    TMP DP  RH WIND       PRES   REMARKS
ADRIAN         CLOUDY    46  44  93 W9G20     29.78S
ALMA           LGT RAIN  34  34  99 NW3       29.78F
ANN ARBOR      CLOUDY    45  45 100 SW7       29.75S FOG
BAD AXE        FOG       36  35  99 SE3       29.75S VSB 1/4
CARO           CLOUDY    38  38  98 CALM      29.75R FOG
DETROIT CITY   CLOUDY    45  45 100 CALM      29.75F FOG
DETROIT        CLOUDY    47  46  97 SW12      29.76F FOG
FLINT          FOG       37  37 100 W3        29.76S VSB 1/4
GROSSE ILE     CLOUDY    48  46  90 W7        29.75S
HILLSDALE      CLOUDY    41  41 100 W9        29.78R FOG
HOWELL         CLOUDY    41  40  97 W8        29.74F FOG

CITY           SKY/WX    TMP DP  RH WIND       PRES   REMARKS
JACKSON        CLOUDY    43  41  93 W15G22    29.76S
LAMBERTVILLE   CLOUDY    48  45  89 W13       29.78S
LANSING        CLOUDY    37  34  89 W5        29.77S FOG     WCI  33
LAPEER         FOG       36  36 100 W3        29.75S VSB 1/4
MASON          CLOUDY    41  41 100 W9        29.76S FOG
MONROE         CLOUDY    48  46  93 SW15      29.76S
MT. CLEMENS    FOG       39  39 100 W2        29.73S VSB 5/16
PONTIAC        FOG       37  36  96 W5        29.73S VSB 1/8 WCI  33
PORT HOPE        N/A     35  34  96 E10       29.74F WCI  27
PORT HURON     FOG       39  39 100 CALM      29.74S VSB 1/2
TRI CITIES     FOG       35  35 100 N7        29.78S VSB 3/4 WCI  29
MIDLAND        FOG       36  34  95 CALM      29.78R VSB 1
TROY           CLOUDY    42  40  95 CALM      29.76F FOG
SAGINAW HB     CLOUDY    36  34  93 W5        29.76S FOG     WCI  32
$$
MIZ043>046-050>051-056>058-064>065-071>073-077>080-172000-
SOUTHWEST LOWER MICHIGAN

CITY           SKY/WX    TMP DP  RH WIND       PRES   REMARKS
BATTLE CREEK   CLOUDY    40  40 100 W12       29.78F WCI  33
BENTON HARBOR  CLOUDY    38  37  97 W13       29.84S FOG     WCI  30
BIG RAPIDS     CLOUDY    34  32  94 CALM      29.77F FOG
COLDWATER      CLOUDY    42  42 100 W14       29.80R FOG
FREMONT        CLOUDY    35  35 100 CALM      29.78F FOG
HOLLAND        FOG       37  36  96 W6        29.80R VSB 1/2 WCI  32
GRAND RAPIDS   FOG       36  34  92 CALM      29.78S VSB 3/4
IONIA          CLOUDY    34  34 100 CALM      29.77F FOG
KALAMAZOO      CLOUDY    40  37  89 W13       29.80S FOG     WCI  32
LUDINGTON      CLOUDY    36  36 100 CALM      29.79S FOG
MARSHALL       CLOUDY    41  40  98 W12       29.77S
MOUNT PLEASANT FOG       34  33  97 CALM      29.77F VSB 1/2
MUSKEGON       DRZL/FOG  37  36  96 W6        29.80S VSB 3/4 WCI  32
SOUTH HAVEN    CLOUDY    38  38  99 W8        29.82R FOG     WCI  32
$$
MIZ016>042-172000-
NORTHERN LOWER MICHIGAN

CITY           SKY/WX    TMP DP  RH WIND       PRES   REMARKS
ALPENA         CLOUDY    35  33  92 E9        29.83F FOG     WCI  28
BEAVER ISLAND  CLOUDY    32  32 100 E13       29.84F FOG     WCI  22
BELLAIRE       CLOUDY    35  32  89 NE5       29.80F WCI  31
CADILLAC       FOG       33  33  96 E5        29.76S VSB 1/2 WCI  29
CHARLEVOIX     CLOUDY    35  34  95 E8        29.84S WCI  29
FRANKFORT      CLOUDY    37  35  92 CALM      29.80S
GAYLORD        CLOUDY    34  31  88 E8        29.77F FOG     WCI  27
GRAYLING       RAIN      34  33  95 E6        29.79S WCI  29
HARBOR SPRINGS CLOUDY    34  33  96 E13G21    29.81F FOG     WCI  25
HOUGHTON LAKE  CLOUDY    35  33  92 E8        29.77F WCI  29
MANISTEE       MIX PCPN  37  36  93 E3        29.79S FOG
OSCODA         CLOUDY    36  35  96 NE10      29.77F FOG     WCI  28
PELLSTON       CLOUDY    34  31  88 E16       29.84F FOG     WCI  24
ROGERS CITY    FOG       33  32  94 E17       29.85F VSB 1   WCI  23
TRAVERSE CITY  CLOUDY    37  34  89 CALM      29.79F
$$
MIZ007>008-015-172000-
EASTERN UPPER MICHIGAN

CITY           SKY/WX    TMP DP  RH WIND       PRES   REMARKS
KINROSS        CLOUDY    34  26  72 E14       29.85F WCI  25
MACKINAC ISLAN CLOUDY    32  31  94 E15G22    29.84F WCI  22
NEWBERRY       CLOUDY    33  29  85 NE8       29.86F WCI  26
S. S. MARIE    CLOUDY    36  26  67 E5        29.87F WCI  32
MUNISING         N/A     35  28  75 NE6       29.87F WCI  30
$$
MIZ004>006-011>014-085-172000-
CENTRAL UPPER MICHIGAN

CITY           SKY/WX    TMP DP  RH WIND       PRES   REMARKS
MANISTIQUE     CLOUDY    33  33  98 NE6       29.86S FOG     WCI  28
ESCANABA       CLOUDY    35  33  92 NE7       29.86S FOG     WCI  29
SAWYER-GWINN   MOSUNNY   34  30  86 NE5       29.85F WCI  30
$$
MIZ001>003-009>011-084-172000-
WESTERN UPPER MICHIGAN

CITY           SKY/WX    TMP DP  RH WIND       PRES   REMARKS
IRON MOUNTAIN  CLOUDY    36  31  82 N5        29.84S WCI  32
HOUGHTON       SUNNY     37  20  50 CALM      29.87F
COPPER HARBOR    N/A     35  31  85 E3        29.89F
IRONWOOD       SUNNY     35  25  66 NW7       29.90F WCI  29
$$

ABBREVIATIONS USED IN REMARKS
   TC - TEMPERATURE IN CELSIUS
  WCI - WIND CHILL INDEX
   HX - HEAT INDEX
  VSB - VISIBILITY





USA.gov is the U.S. government's official web portal to all federal, state and local government web resources and services.